TJS-5

Last updated on Mon Sep 15 2025 00:02:50 GMT+0000 (Coordinated Universal Time)

1 44978U 20002A 25257.09821356 -.00000354 00000+0 00000+0 0 9992 2 44978 0.1110 95.1810 0004403 68.0772 332.9256 1.00274150 20936
UTC large
Height (km)
Speed (km/s)
/
Latitude / Longitude
Inclination (degrees)
Orbital Period (minutes)
Azimuth
Elevation
Range (km)
Doppler Factor

Next 0 passes for location: London (51.5072 / 0.1276)

Sorry there are no passes over London.